| time (UTC) | temp C | wind direction | speed KPH | gust KPH | rain 1hr cm | rain 24hr cm | rain mn cm | humidity % | barometer mb |
| 20260503201521 | 21 | 127 | 4.8 | 9.7 | 0.00 | 0.00 | 0.00 | 46 | 1016.9 |
| 20260503200518 | 21 | 136 | 4.8 | 6.4 | 0.00 | 0.00 | 0.00 | 44 | 1017.0 |
| 20260503195538 | 21 | 152 | 3.2 | 8.0 | 0.00 | 0.00 | 0.00 | 45 | 1017.2 |
| 20260503194518 | 21 | 121 | 1.6 | 6.4 | 0.00 | 0.00 | 0.00 | 44 | 1017.3 |
| 20260503193519 | 21 | 132 | 3.2 | 8.0 | 0.00 | 0.00 | 0.00 | 45 | 1017.5 |
| 20260503192522 | 21 | 119 | 4.8 | 11.3 | 0.00 | 0.00 | 0.00 | 45 | 1017.8 |
| 20260503191522 | 21 | 131 | 4.8 | 11.3 | 0.00 | 0.00 | 0.00 | 44 | 1018.0 |
| 20260503190522 | 21 | 151 | 4.8 | 9.7 | 0.00 | 0.00 | 0.00 | 44 | 1018.2 |
| 20260503185523 | 21 | 184 | 4.8 | 8.0 | 0.00 | 0.00 | 0.00 | 45 | 1018.5 |
| 20260503184523 | 20 | 341 | 4.8 | 9.7 | 0.00 | 0.00 | 0.00 | 45 | 1018.6 |
| 20260503183522 | 20 | 137 | 6.4 | 11.3 | 0.00 | 0.00 | 0.00 | 47 | 1018.8 |
| 20260503182525 | 20 | 180 | 4.8 | 9.7 | 0.00 | 0.00 | 0.00 | 46 | 1018.9 |
| 20260503181603 | 20 | 108 | 4.8 | 8.0 | 0.00 | 0.00 | 0.00 | 47 | 1019.1 |
| 20260503180517 | 20 | 239 | 4.8 | 12.9 | 0.00 | 0.00 | 0.00 | 47 | 1019.1 |
| 20260503175517 | 19 | 146 | 3.2 | 8.0 | 0.00 | 0.00 | 0.00 | 47 | 1019.2 |
| 20260503174517 | 19 | 142 | 4.8 | 11.3 | 0.00 | 0.00 | 0.00 | 48 | 1019.3 |
| 20260503173520 | 19 | 253 | 3.2 | 6.4 | 0.00 | 0.00 | 0.00 | 48 | 1019.4 |
| 20260503172517 | 18 | 119 | 3.2 | 6.4 | 0.00 | 0.00 | 0.00 | 49 | 1019.6 |
| 20260503171523 | 18 | 129 | 4.8 | 11.3 | 0.00 | 0.00 | 0.00 | 50 | 1019.7 |
| 20260503170521 | 19 | 305 | 3.2 | 8.0 | 0.00 | 0.00 | 0.00 | 51 | 1019.8 |
| 20260503150523 | 16 | 263 | 1.6 | 4.8 | 0.00 | 0.08 | 0.00 | 56 | 1021.2 |
| 20260503130524 | 11 | 9 | 1.6 | 3.2 | 0.00 | 0.30 | 0.00 | 90 | 1020.9 |
| 20260503110527 | 7 | 310 | 0.0 | 0.0 | 0.00 | 1.12 | 0.00 | 99 | 1020.0 |
| 20260503081529 | 7 | 333 | 0.0 | 1.6 | 0.00 | 2.36 | 0.00 | 99 | 1018.0 |
| 20260503080529 | 7 | 337 | 1.6 | 1.6 | 0.00 | 2.46 | 0.00 | 99 | 1018.0 |
| 20260503072531 | 8 | 0.0 | 0.0 | 0.00 | 2.62 | 0.00 | 99 | 1017.7 | |
| 20260503071529 | 8 | 0.0 | 0.0 | 0.00 | 2.64 | 0.00 | 99 | 1017.6 | |
| 20260503070529 | 8 | 0.0 | 0.0 | 0.00 | 2.67 | 0.00 | 99 | 1017.6 | |
| 20260503054531 | 10 | 326 | 0.0 | 1.6 | 0.00 | 2.69 | 0.00 | 98 | 1017.2 |
| 20260503053531 | 10 | 338 | 0.0 | 1.6 | 0.00 | 2.69 | 0.00 | 98 | 1017.1 |
| 20260503052531 | 10 | 359 | 0.0 | 1.6 | 0.00 | 2.69 | 0.00 | 97 | 1017.1 |
| 20260503051551 | 10 | 0.0 | 0.0 | 0.00 | 2.69 | 0.00 | 97 | 1017.1 | |
| 20260503050517 | 10 | 333 | 0.0 | 1.6 | 0.00 | 2.69 | 0.00 | 97 | 1017.0 |
| 20260503045517 | 11 | 326 | 1.6 | 1.6 | 0.00 | 2.69 | 0.00 | 97 | 1016.8 |
| 20260503044517 | 11 | 304 | 0.0 | 0.0 | 0.00 | 2.69 | 0.00 | 97 | 1016.7 |
| 20260503043637 | 11 | 301 | 0.0 | 1.6 | 0.00 | 2.69 | 0.00 | 97 | 1016.4 |
| 20260503042537 | 11 | 324 | 0.0 | 1.6 | 0.00 | 2.69 | 0.00 | 96 | 1016.5 |
| 20260503041532 | 11 | 0.0 | 0.0 | 0.00 | 2.69 | 0.00 | 96 | 1016.6 | |
| 20260503040533 | 11 | 330 | 0.0 | 1.6 | 0.00 | 2.69 | 0.00 | 96 | 1016.7 |
| 20260503035532 | 11 | 307 | 0.0 | 0.0 | 0.00 | 2.69 | 2.69 | 95 | 1016.6 |
| 20260503034518 | 11 | 309 | 0.0 | 1.6 | 0.00 | 2.69 | 2.69 | 94 | 1016.5 |
| 20260503033521 | 11 | 350 | 0.0 | 1.6 | 0.00 | 2.69 | 2.69 | 94 | 1016.4 |
| 20260503032538 | 11 | 0.0 | 0.0 | 0.00 | 2.69 | 2.69 | 94 | 1016.5 | |
| 20260503031538 | 11 | 345 | 0.0 | 1.6 | 0.00 | 2.69 | 2.69 | 94 | 1016.6 |
| 20260503030524 | 11 | 92 | 0.0 | 1.6 | 0.00 | 2.69 | 2.69 | 94 | 1016.5 |
| 20260503025519 | 11 | 0.0 | 0.0 | 0.00 | 2.69 | 2.69 | 94 | 1016.4 | |
| 20260503024519 | 11 | 133 | 0.0 | 1.6 | 0.00 | 2.69 | 2.69 | 95 | 1016.1 |
| 20260503023518 | 12 | 133 | 0.0 | 1.6 | 0.00 | 2.69 | 2.69 | 95 | 1016.0 |
| 20260503022519 | 12 | 0.0 | 0.0 | 0.00 | 2.69 | 2.69 | 95 | 1015.6 | |
| 20260503021528 | 12 | 199 | 0.0 | 1.6 | 0.00 | 2.69 | 2.69 | 94 | 1015.5 |
| 20260503020519 | 12 | 0.0 | 0.0 | 0.00 | 2.69 | 2.69 | 94 | 1015.2 | |
| 20260503015519 | 12 | 0.0 | 0.0 | 0.00 | 2.69 | 2.69 | 94 | 1015.2 | |
| 20260503014520 | 11 | 0.0 | 0.0 | 0.00 | 2.69 | 2.69 | 93 | 1015.1 | |
| 20260503013520 | 11 | 0.0 | 0.0 | 0.00 | 2.69 | 2.69 | 93 | 1014.9 | |
| 20260503012600 | 11 | 0.0 | 0.0 | 0.00 | 2.69 | 2.69 | 92 | 1014.7 | |
| 20260503011520 | 11 | 0.0 | 0.0 | 0.00 | 2.69 | 2.69 | 92 | 1014.6 | |
| 20260503010520 | 11 | 12 | 0.0 | 1.6 | 0.00 | 2.69 | 2.69 | 92 | 1014.5 |
| 20260503005525 | 11 | 333 | 0.0 | 1.6 | 0.00 | 2.69 | 2.69 | 91 | 1014.5 |
| 20260503004521 | 11 | 313 | 1.6 | 1.6 | 0.00 | 2.69 | 2.69 | 92 | 1014.3 |
| 20260503003526 | 11 | 309 | 1.6 | 1.6 | 0.00 | 2.69 | 2.69 | 91 | 1014.2 |
| 20260503002521 | 12 | 331 | 1.6 | 1.6 | 0.00 | 2.69 | 2.69 | 90 | 1014.1 |
| 20260503001521 | 12 | 319 | 1.6 | 1.6 | 0.00 | 2.69 | 2.69 | 87 | 1013.9 |
| 20260503000541 | 12 | 301 | 0.0 | 1.6 | 0.00 | 2.69 | 2.69 | 86 | 1013.8 |
| 20260502235541 | 13 | 293 | 0.0 | 1.6 | 0.00 | 2.69 | 2.69 | 81 | 1013.6 |
| 20260502234522 | 14 | 341 | 0.0 | 1.6 | 0.00 | 2.69 | 2.69 | 79 | 1013.5 |
| 20260502233521 | 15 | 359 | 0.0 | 1.6 | 0.00 | 2.69 | 2.69 | 76 | 1013.2 |
| 20260502232526 | 15 | 341 | 1.6 | 3.2 | 0.00 | 2.69 | 2.69 | 73 | 1013.1 |
| 20260502231522 | 15 | 329 | 1.6 | 3.2 | 0.00 | 2.69 | 2.69 | 73 | 1012.9 |
| 20260502230542 | 15 | 333 | 1.6 | 3.2 | 0.00 | 2.69 | 2.69 | 73 | 1013.1 |
| 20260502225543 | 15 | 324 | 1.6 | 4.8 | 0.00 | 2.69 | 2.69 | 75 | 1013.3 |
| 20260502224542 | 15 | 101 | 1.6 | 3.2 | 0.00 | 2.69 | 2.69 | 75 | 1013.3 |
| 20260502223524 | 15 | 351 | 1.6 | 4.8 | 0.00 | 2.69 | 2.69 | 75 | 1013.1 |
| 20260502222523 | 14 | 62 | 3.2 | 4.8 | 0.00 | 2.69 | 2.69 | 75 | 1013.1 |
| 20260502221524 | 14 | 81 | 1.6 | 4.8 | 0.00 | 2.69 | 2.69 | 75 | 1013.0 |
| 20260502220523 | 14 | 65 | 1.6 | 4.8 | 0.00 | 2.69 | 2.69 | 75 | 1013.0 |
| 20260502215524 | 14 | 71 | 1.6 | 4.8 | 0.00 | 2.69 | 2.69 | 77 | 1013.0 |
| 20260502214524 | 14 | 29 | 1.6 | 4.8 | 0.00 | 2.69 | 2.69 | 75 | 1013.0 |
| 20260502213524 | 14 | 11 | 1.6 | 4.8 | 0.00 | 2.69 | 2.69 | 75 | 1012.8 |
| 20260502212524 | 14 | 337 | 3.2 | 8.0 | 0.00 | 2.69 | 2.69 | 74 | 1012.7 |
| 20260502211524 | 14 | 357 | 1.6 | 6.4 | 0.00 | 2.69 | 2.69 | 75 | 1012.8 |
| 20260502210524 | 14 | 42 | 1.6 | 6.4 | 0.00 | 2.69 | 2.69 | 74 | 1012.9 |
| 20260502205525 | 13 | 349 | 1.6 | 6.4 | 0.00 | 2.69 | 2.69 | 75 | 1013.0 |
| 20260502204519 | 13 | 354 | 3.2 | 8.0 | 0.00 | 2.69 | 2.69 | 73 | 1013.0 |
| 20260502203518 | 13 | 56 | 3.2 | 14.5 | 0.00 | 2.69 | 2.69 | 74 | 1013.0 |
| 20260502202519 | 13 | 90 | 4.8 | 8.0 | 0.00 | 2.69 | 2.69 | 75 | 1013.1 |